,,Stat5,,Stat1,,Stat2,,Stat3,,Stat4,,Wind1,,Wind1,
time,status,PA1M_AVG,status,PR1M_SUM,status,RH1M_AVG,status,SR1M_AVG,status,TA1M_AVG,status,W1dAve1m,status,W1sAve1m,
2002-06-16, 00:00:00,VALID,917.496,VALID,0,VALID,97.1773,VALID,-0.0509425,VALID,20.195,VALID,15,VALID,1.6435,
2002-06-16, 00:01:00,VALID,917.496,VALID,0,VALID,97.2091,VALID,-0.0169808,VALID,20.1985,VALID,27,VALID,1.61853,
2002-06-16, 00:02:00,VALID,917.507,VALID,0,VALID,97.3121,VALID,-0.0339617,VALID,20.2206,VALID,19,VALID,1.35064,
2002-06-16, 00:03:00,VALID,917.492,VALID,0,VALID,97.2701,VALID,-0.0169808,VALID,20.2475,VALID,16,VALID,1.45762,
2002-06-16, 00:04:00,VALID,917.489,VALID,0,VALID,97.0425,VALID,-0.0509425,VALID,20.2176,VALID,15,VALID,1.47869,
2002-06-16, 00:05:00,VALID,917.499,VALID,0,VALID,96.9471,VALID,-0.0339617,VALID,20.2149,VALID,22,VALID,1.8683,
2002-06-16, 00:06:00,VALID,917.511,VALID,0,VALID,97.0883,VALID,-0.0169808,VALID,20.2373,VALID,5,VALID,1.78086,
2002-06-16, 00:07:00,VALID,917.533,VALID,0,VALID,96.8123,VALID,-0.0509425,VALID,20.2017,VALID,10,VALID,2.0654,
2002-06-16, 00:08:00,VALID,917.529,VALID,0,VALID,96.9306,VALID,-0.0169808,VALID,20.1818,VALID,11,VALID,1.77528,
2002-06-16, 00:09:00,VALID,917.524,VALID,0,VALID,96.9331,VALID,-0.0169808,VALID,20.1955,VALID,13,VALID,1.89141,
2002-06-16, 00:10:00,VALID,917.526,VALID,0,VALID,96.8619,VALID,-0.0509425,VALID,20.1791,VALID,352,VALID,0.901278,
2002-06-16, 00:11:00,VALID,917.55,VALID,0,VALID,96.675,VALID,-0.0679233,VALID,20.1371,VALID,327,VALID,0.913616,
2002-06-16, 00:12:00,VALID,917.543,VALID,0,VALID,96.75,VALID,-0.0849042,VALID,20.1274,VALID,360,VALID,1.29355,
2002-06-16, 00:13:00,VALID,917.515,VALID,0,VALID,96.8111,VALID,-0.0679233,VALID,20.1212,VALID,18,VALID,2.57321,
2002-06-16, 00:14:00,VALID,917.488,VALID,0,VALID,96.7106,VALID,-0.0679233,VALID,20.1249,VALID,12,VALID,1.98989,
2002-06-16, 00:15:00,VALID,917.465,VALID,0,VALID,96.6788,VALID,-0.0849042,VALID,20.125,VALID,348,VALID,1.14648,
2002-06-16, 00:16:00,VALID,917.455,VALID,0,VALID,96.7221,VALID,-0.101885,VALID,20.1217,VALID,358,VALID,1.04072,
2002-06-16, 00:17:00,VALID,917.426,VALID,0,VALID,96.7335,VALID,-0.0849042,VALID,20.1317,VALID,17,VALID,1.86518,
2002-06-16, 00:18:00,VALID,917.398,VALID,0,VALID,96.5847,VALID,-0.0509425,VALID,20.1051,VALID,11,VALID,1.80488,
2002-06-16, 00:19:00,VALID,917.395,VALID,0,VALID,96.3978,VALID,-0.0849042,VALID,20.1056,VALID,9,VALID,2.35558,
2002-06-16, 00:20:00,VALID,917.345,VALID,0,VALID,96.1269,VALID,-0.0849042,VALID,20.0767,VALID,20,VALID,1.7006,
2002-06-16, 00:21:00,VALID,917.337,VALID,0,VALID,96.0443,VALID,-0.0509425,VALID,20.0566,VALID,8,VALID,2.01016,
2002-06-16, 00:22:00,VALID,917.326,VALID,0,VALID,95.9947,VALID,0,VALID,20.0427,VALID,8,VALID,2.12571,
2002-06-16, 00:23:00,VALID,917.326,VALID,0,VALID,95.8803,VALID,0.0169808,VALID,20.0335,VALID,341,VALID,2.09799,
2002-06-16, 00:24:00,VALID,917.302,VALID,0,VALID,95.6781,VALID,0.0339617,VALID,19.9877,VALID,334,VALID,1.81797,
2002-06-16, 00:25:00,VALID,917.293,VALID,0,VALID,96.0494,VALID,0,VALID,19.9877,VALID,4,VALID,1.80424,
2002-06-16, 00:26:00,VALID,917.294,VALID,0,VALID,96.2605,VALID,0.0169808,VALID,20.0069,VALID,2,VALID,0.875689,
2002-06-16, 00:27:00,VALID,917.32,VALID,0,VALID,96.3101,VALID,0,VALID,20.027,VALID,358,VALID,0.994336,
2002-06-16, 00:28:00,VALID,917.344,VALID,0,VALID,96.2452,VALID,0.0169808,VALID,20.0007,VALID,358,VALID,1.72775,
2002-06-16, 00:29:00,VALID,917.365,VALID,0,VALID,96.4296,VALID,0.0169808,VALID,20.0111,VALID,5,VALID,1.75982,
2002-06-16, 00:30:00,VALID,917.39,VALID,0,VALID,96.5072,VALID,0.0339617,VALID,19.988,VALID,7,VALID,0.949609,
2002-06-16, 00:31:00,VALID,917.404,VALID,0,VALID,96.6776,VALID,0,VALID,19.9853,VALID,18,VALID,1.18482,
2002-06-16, 00:32:00,VALID,917.418,VALID,0,VALID,96.9115,VALID,0,VALID,20.0109,VALID,22,VALID,0.921875,
2002-06-16, 00:33:00,VALID,917.42,VALID,0,VALID,96.9637,VALID,0,VALID,20.02,VALID,15,VALID,0.985156,
2002-06-16, 00:34:00,VALID,917.409,VALID,0,VALID,96.839,VALID,0.0339617,VALID,20.0076,VALID,4,VALID,1.11482,
2002-06-16, 00:35:00,VALID,917.382,VALID,0,VALID,96.7348,VALID,0.0169808,VALID,19.9684,VALID,17,VALID,1.05179,
2002-06-16, 00:36:00,VALID,917.353,VALID,0,VALID,96.7856,VALID,0.0169808,VALID,19.9525,VALID,14,VALID,0.956055,
2002-06-16, 00:37:00,VALID,917.338,VALID,0,VALID,96.8022,VALID,0,VALID,19.9398,VALID,3,VALID,0.75692,
2002-06-16, 00:38:00,VALID,917.316,VALID,0,VALID,96.7348,VALID,0,VALID,19.904,VALID,3,VALID,1.46553,
2002-06-16, 00:39:00,VALID,917.299,VALID,0,VALID,96.792,VALID,0.0169808,VALID,19.8913,VALID,14,VALID,1.56602,
2002-06-16, 00:40:00,VALID,917.247,VALID,0,VALID,96.8657,VALID,0.0509425,VALID,19.8814,VALID,14,VALID,1.43537,
2002-06-16, 00:41:00,VALID,917.231,VALID,0,VALID,96.8772,VALID,0.0169808,VALID,19.869,VALID,12,VALID,1.27277,
2002-06-16, 00:42:00,VALID,917.201,VALID,0,VALID,96.8746,VALID,0.0169808,VALID,19.8496,VALID,14,VALID,1.4123,
2002-06-16, 00:43:00,VALID,917.179,VALID,0,VALID,96.8594,VALID,0,VALID,19.8334,VALID,4,VALID,1.15246,
2002-06-16, 00:44:00,VALID,917.175,VALID,0,VALID,96.8136,VALID,0.0339617,VALID,19.8232,VALID,8,VALID,1.06365,
2002-06-16, 00:45:00,VALID,917.163,VALID,0,VALID,96.8657,VALID,0.0169808,VALID,19.8265,VALID,7,VALID,1.00273,
2002-06-16, 00:46:00,VALID,917.146,VALID,0,VALID,96.7818,VALID,0.0339617,VALID,19.8202,VALID,359,VALID,1.20241,
2002-06-16, 00:47:00,VALID,917.128,VALID,0,VALID,96.4983,VALID,0.0339617,VALID,19.7616,VALID,344,VALID,0.89308,
2002-06-16, 00:48:00,VALID,917.125,VALID,0,VALID,96.6089,VALID,0.0339617,VALID,19.7556,VALID,352,VALID,1.16055,
2002-06-16, 00:49:00,VALID,917.11,VALID,0,VALID,96.6674,VALID,0,VALID,19.7497,VALID,350,VALID,0.969866,
2002-06-16, 00:50:00,VALID,917.119,VALID,0,VALID,96.5631,VALID,0.0169808,VALID,19.7203,VALID,360,VALID,1.05423,
2002-06-16, 00:51:00,VALID,917.118,VALID,0,VALID,96.6267,VALID,0,VALID,19.7109,VALID,14,VALID,2.10586,
2002-06-16, 00:52:00,VALID,917.139,VALID,0,VALID,96.7373,VALID,0.0169808,VALID,19.701,VALID,13,VALID,1.84635,
2002-06-16, 00:53:00,VALID,917.151,VALID,0,VALID,96.7856,VALID,0.0509425,VALID,19.688,VALID,13,VALID,1.86629,
2002-06-16, 00:54:00,VALID,917.154,VALID,0,VALID,96.6318,VALID,0.0169808,VALID,19.656,VALID,2,VALID,1.30371,
2002-06-16, 00:55:00,VALID,917.154,VALID,0,VALID,96.5529,VALID,0,VALID,19.6659,VALID,347,VALID,1.68304,
2002-06-16, 00:56:00,VALID,917.167,VALID,0,VALID,96.6547,VALID,0,VALID,19.6754,VALID,357,VALID,1.52551,
2002-06-16, 00:57:00,VALID,917.161,VALID,0,VALID,96.8162,VALID,0,VALID,19.6918,VALID,3,VALID,1.23574,
2002-06-16, 00:58:00,VALID,917.135,VALID,0,VALID,96.956,VALID,0.0339617,VALID,19.6945,VALID,13,VALID,1.23438,
2002-06-16, 00:59:00,VALID,917.119,VALID,0,VALID,97.115,VALID,0,VALID,19.7139,VALID,359,VALID,1.25714,
2002-06-16, 01:00:00,VALID,917.115,VALID,0,VALID,96.7589,VALID,0,VALID,19.6856,VALID,349,VALID,1.27447,
2002-06-16, 01:01:00,VALID,917.099,VALID,0,VALID,96.8772,VALID,0,VALID,19.6659,VALID,8,VALID,1.03393,
2002-06-16, 01:02:00,VALID,917.09,VALID,0,VALID,96.9967,VALID,0,VALID,19.656,VALID,8,VALID,1.30561,
2002-06-16, 01:03:00,VALID,917.086,VALID,0,VALID,97.0807,VALID,0,VALID,19.646,VALID,16,VALID,1.29805,
2002-06-16, 01:04:00,VALID,917.087,VALID,0,VALID,97.1188,VALID,0.0339617,VALID,19.6528,VALID,18,VALID,1.24882,
2002-06-16, 01:05:00,VALID,917.074,VALID,0,VALID,97.1964,VALID,0,VALID,19.6721,VALID,15,VALID,1.18571,
2002-06-16, 01:06:00,VALID,917.07,VALID,0,VALID,97.0501,VALID,0.0339617,VALID,19.646,VALID,10,VALID,1.45566,
2002-06-16, 01:07:00,VALID,917.064,VALID,0,VALID,96.9598,VALID,0,VALID,19.6306,VALID,5,VALID,1.05446,
2002-06-16, 01:08:00,VALID,917.078,VALID,0,VALID,97.0069,VALID,0,VALID,19.6304,VALID,8,VALID,1.16912,
2002-06-16, 01:09:00,VALID,917.053,VALID,0,VALID,96.9293,VALID,0,VALID,19.6207,VALID,11,VALID,1.00781,
2002-06-16, 01:10:00,VALID,917.065,VALID,0,VALID,96.8365,VALID,0.0339617,VALID,19.6045,VALID,6,VALID,1.16785,
2002-06-16, 01:11:00,VALID,917.078,VALID,0,VALID,96.7399,VALID,0,VALID,19.5978,VALID,14,VALID,1.36563,
2002-06-16, 01:12:00,VALID,917.079,VALID,0,VALID,96.4779,VALID,0.0169808,VALID,19.5755,VALID,16,VALID,1.58926,
2002-06-16, 01:13:00,VALID,917.074,VALID,0,VALID,96.5351,VALID,0,VALID,19.5919,VALID,8,VALID,0.951339,
2002-06-16, 01:14:00,VALID,917.057,VALID,0,VALID,96.2071,VALID,0,VALID,19.5852,VALID,10,VALID,1.49908,
2002-06-16, 01:15:00,VALID,917.04,VALID,0,VALID,95.8892,VALID,0,VALID,19.5757,VALID,13,VALID,0.888672,
2002-06-16, 01:16:00,VALID,917.007,VALID,0,VALID,95.8179,VALID,0.0169808,VALID,19.5849,VALID,23,VALID,1.20526,
2002-06-16, 01:17:00,VALID,916.969,VALID,0,VALID,95.5763,VALID,0.0509425,VALID,19.5817,VALID,13,VALID,1.34241,
2002-06-16, 01:18:00,VALID,916.929,VALID,0,VALID,95.2673,VALID,0.0169808,VALID,19.5722,VALID,17,VALID,1.18164,
2002-06-16, 01:19:00,VALID,916.927,VALID,0,VALID,95.2254,VALID,0.0339617,VALID,19.5685,VALID,9,VALID,0.829911,
2002-06-16, 01:20:00,VALID,916.915,VALID,0,VALID,95.3055,VALID,0,VALID,19.5789,VALID,354,VALID,0.913833,
2002-06-16, 01:21:00,VALID,916.915,VALID,0,VALID,95.3144,VALID,0.0339617,VALID,19.5623,VALID,346,VALID,0.813867,
2002-06-16, 01:22:00,VALID,916.888,VALID,0,VALID,95.4199,VALID,0.0339617,VALID,19.5526,VALID,343,VALID,0.713542,
2002-06-16, 01:23:00,VALID,916.875,VALID,0,VALID,95.4301,VALID,0.0169808,VALID,19.5499,VALID,329,VALID,0.852902,
2002-06-16, 01:24:00,VALID,916.867,VALID,0,VALID,95.7327,VALID,0,VALID,19.5526,VALID,347,VALID,0.632227,
2002-06-16, 01:25:00,VALID,916.863,VALID,0,VALID,95.748,VALID,0,VALID,19.5792,VALID,1,VALID,0.967411,
2002-06-16, 01:26:00,VALID,916.84,VALID,0,VALID,95.6336,VALID,0,VALID,19.5628,VALID,360,VALID,0.753217,
2002-06-16, 01:27:00,VALID,916.842,VALID,0,VALID,95.5318,VALID,0,VALID,19.5635,VALID,351,VALID,0.283398,
2002-06-16, 01:28:00,VALID,916.822,VALID,0,VALID,95.6119,VALID,0,VALID,19.5499,VALID,13,VALID,0.308712,
2002-06-16, 01:29:00,VALID,916.815,VALID,0,VALID,95.603,VALID,0.0169808,VALID,19.5566,VALID,37,VALID,0.746652,
2002-06-16, 01:30:00,VALID,916.804,VALID,0,VALID,95.645,VALID,0.0169808,VALID,19.5531,VALID,29,VALID,0.711328,
2002-06-16, 01:31:00,VALID,916.808,VALID,0,VALID,95.6755,VALID,0,VALID,19.5501,VALID,35,VALID,0.790848,
2002-06-16, 01:32:00,VALID,916.801,VALID,0,VALID,95.6158,VALID,0,VALID,19.5469,VALID,50,VALID,0.554228,
2002-06-16, 01:33:00,VALID,916.767,VALID,0,VALID,95.6971,VALID,0,VALID,19.5496,VALID,41,VALID,0.325781,
2002-06-16, 01:34:00,VALID,916.774,VALID,0,VALID,95.6704,VALID,0.0169808,VALID,19.5434,VALID,42,VALID,0.130208,
2002-06-16, 01:35:00,VALID,916.743,VALID,0,VALID,95.7455,VALID,0.0169808,VALID,19.5369,VALID,42,VALID,0.01875,
2002-06-16, 01:36:00,VALID,916.711,VALID,0,VALID,95.7582,VALID,-0.0169808,VALID,19.5268,VALID,42,VALID,0.0277344,
2002-06-16, 01:37:00,VALID,916.67,VALID,0,VALID,95.8853,VALID,0.0169808,VALID,19.5238,VALID,42,VALID,0.0388393,
2002-06-16, 01:38:00,VALID,916.627,VALID,0,VALID,95.8129,VALID,0.0169808,VALID,19.5275,VALID,42,VALID,0.00919118,
2002-06-16, 01:39:00,VALID,916.578,VALID,0,VALID,95.8154,VALID,0,VALID,19.5079,VALID,42,VALID,0.0558594,
2002-06-16, 01:40:00,VALID,916.532,VALID,0,VALID,95.9006,VALID,-0.0339617,VALID,19.4954,VALID,43,VALID,0.0485322,
2002-06-16, 01:41:00,VALID,916.501,VALID,0,VALID,96.0061,VALID,-0.0509425,VALID,19.4902,VALID,43,VALID,0.0993304,
2002-06-16, 01:42:00,VALID,916.479,VALID,0,VALID,96.0646,VALID,-0.0849042,VALID,19.4768,VALID,44,VALID,0.528516,
2002-06-16, 01:43:00,VALID,916.477,VALID,0,VALID,96.0926,VALID,-0.0509425,VALID,19.4604,VALID,33,VALID,0.571205,
2002-06-16, 01:44:00,VALID,916.503,VALID,0,VALID,96.1079,VALID,-0.0339617,VALID,19.4964,VALID,21,VALID,0.269072,
2002-06-16, 01:45:00,VALID,916.503,VALID,0,VALID,96.2363,VALID,-0.0169808,VALID,19.4934,VALID,21,VALID,0.0810547,
2002-06-16, 01:46:00,VALID,916.496,VALID,0,VALID,96.1498,VALID,-0.0339617,VALID,19.4964,VALID,21,VALID,0,
2002-06-16, 01:47:00,VALID,916.508,VALID,0,VALID,96.1079,VALID,-0.0169808,VALID,19.4997,VALID,22,VALID,0.252455,
2002-06-16, 01:48:00,VALID,916.488,VALID,0,VALID,96.0303,VALID,-0.0679233,VALID,19.48,VALID,43,VALID,0.0707031,
2002-06-16, 01:49:00,VALID,916.47,VALID,0,VALID,96.0799,VALID,-0.0339617,VALID,19.477,VALID,9,VALID,0.318527,
2002-06-16, 01:50:00,VALID,916.442,VALID,0,VALID,96.01,VALID,-0.0509425,VALID,19.4577,VALID,8,VALID,0.327895,
2002-06-16, 01:51:00,VALID,916.416,VALID,0,VALID,95.968,VALID,-0.0339617,VALID,19.4442,VALID,17,VALID,0.323828,
2002-06-16, 01:52:00,VALID,916.381,VALID,0,VALID,95.9578,VALID,-0.0679233,VALID,19.4383,VALID,18,VALID,0.155303,
2002-06-16, 01:53:00,VALID,916.348,VALID,0,VALID,95.8942,VALID,-0.0509425,VALID,19.4256,VALID,59,VALID,0.512946,
2002-06-16, 01:54:00,VALID,916.337,VALID,0,VALID,95.823,VALID,-0.0339617,VALID,19.4159,VALID,72,VALID,0.495508,
2002-06-16, 01:55:00,VALID,916.306,VALID,0,VALID,95.8269,VALID,-0.101885,VALID,19.4139,VALID,87,VALID,0.335045,
2002-06-16, 01:56:00,VALID,916.291,VALID,0,VALID,95.8396,VALID,-0.0849042,VALID,19.3898,VALID,107,VALID,0.201976,
2002-06-16, 01:57:00,VALID,916.297,VALID,0,VALID,95.9082,VALID,-0.0849042,VALID,19.4005,VALID,111,VALID,0.291406,
2002-06-16, 01:58:00,VALID,916.303,VALID,0,VALID,95.907,VALID,-0.0849042,VALID,19.3873,VALID,142,VALID,0.499053,
2002-06-16, 01:59:00,VALID,916.289,VALID,0,VALID,95.982,VALID,-0.101885,VALID,19.3679,VALID,175,VALID,0.643304,
2002-06-16, 02:00:00,VALID,916.288,VALID,0,VALID,96.0481,VALID,-0.101885,VALID,19.3418,VALID,168,VALID,0.420508,
2002-06-16, 02:01:00,VALID,916.29,VALID,0,VALID,96.0977,VALID,-0.101885,VALID,19.3229,VALID,168,VALID,0.0665179,
2002-06-16, 02:02:00,VALID,916.248,VALID,0,VALID,96.2032,VALID,-0.0509425,VALID,19.3095,VALID,170,VALID,0.0549173,
2002-06-16, 02:03:00,VALID,916.222,VALID,0,VALID,96.2388,VALID,-0.0679233,VALID,19.2872,VALID,185,VALID,0.183203,
2002-06-16, 02:04:00,VALID,916.192,VALID,0,VALID,96.3037,VALID,-0.101885,VALID,19.2805,VALID,185,VALID,0,
2002-06-16, 02:05:00,VALID,916.145,VALID,0,VALID,96.3673,VALID,-0.0849042,VALID,19.2809,VALID,185,VALID,0.115402,
2002-06-16, 02:06:00,VALID,916.106,VALID,0,VALID,96.3279,VALID,-0.0679233,VALID,19.2643,VALID,185,VALID,0.296875,
2002-06-16, 02:07:00,VALID,916.093,VALID,0,VALID,96.2554,VALID,-0.101885,VALID,19.2514,VALID,185,VALID,0.253125,
2002-06-16, 02:08:00,VALID,916.083,VALID,0,VALID,96.2732,VALID,-0.0849042,VALID,19.2258,VALID,185,VALID,0.095818,
2002-06-16, 02:09:00,VALID,916.09,VALID,0,VALID,96.3088,VALID,-0.0849042,VALID,19.226,VALID,185,VALID,0,
2002-06-16, 02:10:00,VALID,916.094,VALID,0,VALID,96.3482,VALID,-0.0679233,VALID,19.2069,VALID,185,VALID,0,
2002-06-16, 02:11:00,VALID,916.09,VALID,0,VALID,96.38,VALID,-0.0679233,VALID,19.2004,VALID,185,VALID,0.000892857,
2002-06-16, 02:12:00,VALID,916.077,VALID,0,VALID,96.4627,VALID,-0.0679233,VALID,19.1808,VALID,185,VALID,0,
2002-06-16, 02:13:00,VALID,916.075,VALID,0,VALID,96.4614,VALID,-0.101885,VALID,19.1644,VALID,185,VALID,0.0328125,
2002-06-16, 02:14:00,VALID,916.082,VALID,0,VALID,96.5389,VALID,-0.0509425,VALID,19.1418,VALID,185,VALID,0,
2002-06-16, 02:15:00,VALID,916.087,VALID,0,VALID,96.4894,VALID,-0.0849042,VALID,19.1326,VALID,185,VALID,0.00644531,
2002-06-16, 02:16:00,VALID,916.089,VALID,0,VALID,96.5784,VALID,-0.101885,VALID,19.0936,VALID,121,VALID,0.203125,
2002-06-16, 02:17:00,VALID,916.094,VALID,0,VALID,96.7144,VALID,-0.0679233,VALID,19.0869,VALID,78,VALID,0.0984375,
2002-06-16, 02:18:00,VALID,916.095,VALID,0,VALID,96.7767,VALID,-0.101885,VALID,19.0712,VALID,78,VALID,0.0121094,
2002-06-16, 02:19:00,VALID,916.104,VALID,0,VALID,96.8276,VALID,-0.0849042,VALID,19.0421,VALID,78,VALID,0,
2002-06-16, 02:20:00,VALID,916.103,VALID,0,VALID,96.8937,VALID,-0.101885,VALID,19.0327,VALID,78,VALID,0,
2002-06-16, 02:21:00,VALID,916.131,VALID,0,VALID,96.9344,VALID,-0.101885,VALID,19.0126,VALID,78,VALID,0,
2002-06-16, 02:22:00,VALID,916.141,VALID,0,VALID,96.8975,VALID,-0.0849042,VALID,19.0036,VALID,78,VALID,0,
2002-06-16, 02:23:00,VALID,916.145,VALID,0,VALID,96.895,VALID,-0.101885,VALID,18.977,VALID,75,VALID,0.0921875,
2002-06-16, 02:24:00,VALID,916.141,VALID,0,VALID,96.9624,VALID,-0.101885,VALID,18.9614,VALID,51,VALID,0.185547,
2002-06-16, 02:25:00,VALID,916.147,VALID,0,VALID,96.9929,VALID,-0.0339617,VALID,18.9283,VALID,51,VALID,0,
2002-06-16, 02:26:00,VALID,916.127,VALID,0,VALID,97.0438,VALID,0.0169808,VALID,18.9145,VALID,51,VALID,0,
2002-06-16, 02:27:00,VALID,916.123,VALID,0,VALID,97.1226,VALID,0.0169808,VALID,18.8889,VALID,51,VALID,0,
2002-06-16, 02:28:00,VALID,916.123,VALID,0,VALID,97.1468,VALID,0.0169808,VALID,18.8859,VALID,51,VALID,0.172112,
2002-06-16, 02:29:00,VALID,916.125,VALID,0,VALID,97.1748,VALID,0.0169808,VALID,18.8471,VALID,58,VALID,0.5625,
2002-06-16, 02:30:00,VALID,916.134,VALID,0,VALID,97.4596,VALID,0,VALID,18.8377,VALID,73,VALID,1.06152,
2002-06-16, 02:31:00,VALID,916.147,VALID,0,VALID,97.5867,VALID,0,VALID,18.8374,VALID,76,VALID,1.27321,
2002-06-16, 02:32:00,VALID,916.155,VALID,0,VALID,97.6325,VALID,0,VALID,18.8118,VALID,74,VALID,1.30676,
2002-06-16, 02:33:00,VALID,916.177,VALID,0,VALID,97.7521,VALID,0,VALID,18.786,VALID,66,VALID,1.24043,
2002-06-16, 02:34:00,VALID,916.197,VALID,0,VALID,97.8156,VALID,0,VALID,18.7696,VALID,71,VALID,1.1901,
2002-06-16, 02:35:00,VALID,916.22,VALID,0,VALID,98.0356,VALID,0,VALID,18.7892,VALID,69,VALID,1.12388,
2002-06-16, 02:36:00,VALID,916.252,VALID,0,VALID,98.1043,VALID,0.0339617,VALID,18.8049,VALID,70,VALID,0.914453,
2002-06-16, 02:37:00,VALID,916.247,VALID,0,VALID,98.2251,VALID,0,VALID,18.8273,VALID,72,VALID,0.828795,
2002-06-16, 02:38:00,VALID,916.239,VALID,0,VALID,98.1768,VALID,0,VALID,18.8667,VALID,72,VALID,0.57261,
2002-06-16, 02:39:00,VALID,916.231,VALID,0,VALID,98.0903,VALID,0,VALID,18.8506,VALID,71,VALID,0.525,
2002-06-16, 02:40:00,VALID,916.225,VALID,0,VALID,98.0738,VALID,0,VALID,18.8568,VALID,71,VALID,0.173295,
2002-06-16, 02:41:00,VALID,916.221,VALID,0,VALID,98.0674,VALID,-0.0169808,VALID,18.8665,VALID,71,VALID,0,
2002-06-16, 02:42:00,VALID,916.209,VALID,0,VALID,98.0496,VALID,-0.0169808,VALID,18.8727,VALID,71,VALID,0,
2002-06-16, 02:43:00,VALID,916.21,VALID,0,VALID,97.9403,VALID,0,VALID,18.8663,VALID,71,VALID,0,
2002-06-16, 02:44:00,VALID,916.213,VALID,0,VALID,97.8296,VALID,0.0169808,VALID,18.8471,VALID,71,VALID,0,
2002-06-16, 02:45:00,VALID,916.201,VALID,0,VALID,97.8017,VALID,0,VALID,18.8277,VALID,42,VALID,0.19668,
2002-06-16, 02:46:00,VALID,916.196,VALID,0,VALID,97.7635,VALID,0,VALID,18.8114,VALID,27,VALID,0.563684,
2002-06-16, 02:47:00,VALID,916.173,VALID,0,VALID,97.7737,VALID,0,VALID,18.7987,VALID,27,VALID,0.517857,
2002-06-16, 02:48:00,VALID,916.179,VALID,0,VALID,97.9453,VALID,0,VALID,18.8051,VALID,27,VALID,0.512305,
2002-06-16, 02:49:00,VALID,916.143,VALID,0,VALID,98.1348,VALID,0,VALID,18.8469,VALID,27,VALID,0.465179,
2002-06-16, 02:50:00,VALID,916.135,VALID,0,VALID,98.2607,VALID,0,VALID,18.912,VALID,27,VALID,0.189108,
2002-06-16, 02:51:00,VALID,916.149,VALID,0,VALID,98.22,VALID,0.0339617,VALID,18.9182,VALID,27,VALID,0.14082,
2002-06-16, 02:52:00,VALID,916.151,VALID,0,VALID,98.1691,VALID,0,VALID,18.9219,VALID,27,VALID,0.0104167,
2002-06-16, 02:53:00,VALID,916.157,VALID,0,VALID,98.1285,VALID,-0.0169808,VALID,18.9219,VALID,27,VALID,0,
2002-06-16, 02:54:00,VALID,916.157,VALID,0,VALID,97.8729,VALID,0.0169808,VALID,18.8859,VALID,29,VALID,0.090625,
2002-06-16, 02:55:00,VALID,916.14,VALID,0,VALID,97.869,VALID,0,VALID,18.8762,VALID,39,VALID,0.594643,
2002-06-16, 02:56:00,VALID,916.142,VALID,0,VALID,97.9352,VALID,0,VALID,18.8831,VALID,40,VALID,0.42693,
2002-06-16, 02:57:00,VALID,916.131,VALID,0,VALID,97.9136,VALID,0,VALID,18.8827,VALID,40,VALID,0.0367187,
2002-06-16, 02:58:00,VALID,916.098,VALID,0,VALID,97.8334,VALID,0,VALID,18.8762,VALID,40,VALID,0,
2002-06-16, 02:59:00,VALID,916.075,VALID,0,VALID,97.7152,VALID,0,VALID,18.8474,VALID,50,VALID,0.129911,
2002-06-16, 03:00:00,VALID,916.06,VALID,0,VALID,97.6491,VALID,0,VALID,18.818,VALID,112,VALID,0.524219,
2002-06-16, 03:01:00,VALID,916.053,VALID,0,VALID,97.6694,VALID,0,VALID,18.7892,VALID,139,VALID,0.75,
2002-06-16, 03:02:00,VALID,916.078,VALID,0,VALID,97.7495,VALID,0,VALID,18.7763,VALID,133,VALID,0.700138,
2002-06-16, 03:03:00,VALID,916.092,VALID,0,VALID,97.8652,VALID,-0.0169808,VALID,18.7668,VALID,120,VALID,0.787109,
2002-06-16, 03:04:00,VALID,916.113,VALID,0,VALID,98.1094,VALID,0,VALID,18.7703,VALID,106,VALID,0.999763,
2002-06-16, 03:05:00,VALID,916.117,VALID,0,VALID,98.3344,VALID,0,VALID,18.8021,VALID,112,VALID,1.06607,
2002-06-16, 03:06:00,VALID,916.118,VALID,0,VALID,98.3306,VALID,0,VALID,18.8151,VALID,110,VALID,0.856641,
2002-06-16, 03:07:00,VALID,916.134,VALID,0,VALID,98.3612,VALID,-0.0169808,VALID,18.8153,VALID,109,VALID,0.504687,
2002-06-16, 03:08:00,VALID,916.144,VALID,0,VALID,98.3777,VALID,-0.0169808,VALID,18.8213,VALID,102,VALID,0.441176,
2002-06-16, 03:09:00,VALID,916.153,VALID,0,VALID,98.2683,VALID,0.0339617,VALID,18.7987,VALID,100,VALID,0.548242,
2002-06-16, 03:10:00,VALID,916.134,VALID,0,VALID,98.1463,VALID,0,VALID,18.7604,VALID,90,VALID,0.735322,
2002-06-16, 03:11:00,VALID,916.149,VALID,0,VALID,98.4171,VALID,0.0169808,VALID,18.7701,VALID,87,VALID,1.0346,
2002-06-16, 03:12:00,VALID,916.147,VALID,0,VALID,98.4451,VALID,0,VALID,18.7857,VALID,96,VALID,1.04434,
2002-06-16, 03:13:00,VALID,916.158,VALID,0,VALID,98.4832,VALID,0,VALID,18.8051,VALID,102,VALID,0.841295,
2002-06-16, 03:14:00,VALID,916.153,VALID,0,VALID,98.5468,VALID,0,VALID,18.8185,VALID,128,VALID,0.831112,
2002-06-16, 03:15:00,VALID,916.155,VALID,0,VALID,98.6447,VALID,0,VALID,18.8543,VALID,129,VALID,1.0209,
2002-06-16, 03:16:00,VALID,916.15,VALID,0,VALID,98.6282,VALID,0,VALID,18.87,VALID,141,VALID,0.817472,
2002-06-16, 03:17:00,VALID,916.158,VALID,0,VALID,98.5888,VALID,-0.0169808,VALID,18.8792,VALID,136,VALID,0.628795,
2002-06-16, 03:18:00,VALID,916.137,VALID,0,VALID,98.5061,VALID,0.0169808,VALID,18.8859,VALID,136,VALID,0.913477,
2002-06-16, 03:19:00,VALID,916.132,VALID,0,VALID,98.5824,VALID,0,VALID,18.8928,VALID,147,VALID,0.891071,
2002-06-16, 03:20:00,VALID,916.138,VALID,0,VALID,98.6638,VALID,-0.0169808,VALID,18.9092,VALID,146,VALID,0.974265,
2002-06-16, 03:21:00,VALID,916.143,VALID,0,VALID,98.7159,VALID,-0.0169808,VALID,18.9445,VALID,111,VALID,0.483594,
2002-06-16, 03:22:00,VALID,916.143,VALID,0,VALID,98.5557,VALID,-0.0339617,VALID,18.9216,VALID,103,VALID,0.0203598,
2002-06-16, 03:23:00,VALID,916.151,VALID,0,VALID,98.4108,VALID,0,VALID,18.8672,VALID,103,VALID,0,
2002-06-16, 03:24:00,VALID,916.147,VALID,0,VALID,98.384,VALID,0,VALID,18.8151,VALID,103,VALID,0.00898437,
2002-06-16, 03:25:00,VALID,916.154,VALID,0,VALID,98.3815,VALID,0,VALID,18.8086,VALID,103,VALID,0.0116071,
2002-06-16, 03:26:00,VALID,916.16,VALID,0,VALID,98.4146,VALID,0,VALID,18.7823,VALID,103,VALID,0,
2002-06-16, 03:27:00,VALID,916.184,VALID,0,VALID,98.4591,VALID,0,VALID,18.782,VALID,103,VALID,0,
2002-06-16, 03:28:00,VALID,916.175,VALID,0,VALID,98.5494,VALID,-0.0169808,VALID,18.8086,VALID,103,VALID,0,
2002-06-16, 03:29:00,VALID,916.184,VALID,0.2,VALID,98.5188,VALID,0,VALID,18.8148,VALID,101,VALID,0.193973,
2002-06-16, 03:30:00,VALID,916.199,VALID,0,VALID,98.5252,VALID,0,VALID,18.8086,VALID,100,VALID,0.0724609,
2002-06-16, 03:31:00,VALID,916.202,VALID,0,VALID,98.5544,VALID,0,VALID,18.8218,VALID,100,VALID,0,
2002-06-16, 03:32:00,VALID,916.201,VALID,0,VALID,98.5888,VALID,0,VALID,18.8379,VALID,100,VALID,0,
2002-06-16, 03:33:00,VALID,916.187,VALID,0,VALID,98.5773,VALID,0,VALID,18.8377,VALID,100,VALID,0,
2002-06-16, 03:34:00,VALID,916.176,VALID,0,VALID,98.5799,VALID,0,VALID,18.8307,VALID,100,VALID,0,
2002-06-16, 03:35:00,VALID,916.143,VALID,0,VALID,98.5811,VALID,0,VALID,18.8342,VALID,100,VALID,0,
2002-06-16, 03:36:00,VALID,916.117,VALID,0,VALID,98.6193,VALID,0,VALID,18.8441,VALID,100,VALID,0,
2002-06-16, 03:37:00,VALID,916.117,VALID,0,VALID,98.6333,VALID,0.0169808,VALID,18.86,VALID,100,VALID,0.00424107,
2002-06-16, 03:38:00,VALID,916.099,VALID,0,VALID,98.688,VALID,0,VALID,18.873,VALID,100,VALID,0.242877,